Simultaneous Nadir Overpasses (SNOs) Predictions

Prediction of SNOs between GOES-15 and TERRA Satellite Orbit:

Table of predicted SNOs for the next 14.0 days since TLE Epoch: 11/26/2016
Index Date Time (GOES-15) GOES-15 Lat,Lon TERRA Lat,Lon Distance(km) Time Diff (sec)
1 11/26/2016 19:13:04 -0.18,-135.37 -1.07,-131.16 478.76 80
2 11/27/2016 07:37:08 0.16,-135.39 -0.04,-136.35 109.45 80
3 11/29/2016 07:22:17 0.16,-135.39 0.59,-133.40 227.09 80
4 11/29/2016 19:46:13 -0.15,-135.38 0.50,-138.55 360.69 80
5 12/01/2016 19:31:22 -0.15,-135.38 -0.13,-135.60 25.02 80
6 12/03/2016 19:19:11 -0.15,-135.37 -0.76,-132.65 310.36 80
7 12/04/2016 07:43:14 0.13,-135.38 -0.41,-137.82 277.88 80
8 12/06/2016 07:28:23 0.13,-135.37 0.23,-134.87 56.47 80
9 12/08/2016 07:16:12
